Tracking 32139 objects as of 18-Nov-2025
HD Live streaming from Space Station
objects crossing your sky now

STARLINK-35250

Track STARLINK-35250 now!
10-day predictions
STARLINK-35250 is classified as:


NORAD ID: 65603
Int'l Code: 2025-207M
Perigee: 453.8 km
Apogee: 456.6 km
Inclination: 97.6 °
Period: 93.5 minutes
Semi major axis: 6826 km
RCS: Unknown
Launch date: September 13, 2025
Source: United States (US)
Launch site: AIR FORCE EASTERN TEST RANGE (AFETR)
Your satellite tracking list
Your tracking list is empty




NASA's NSSDC Master Catalog

Two Line Element Set (TLE):
1 65603U 25207M   25321.60387190  .00047032  00000-0  12006-2 0  9990
2 65603  97.6043  26.4375 0002030  92.2669 267.8808 15.39345920 11289
Source of the keplerian elements: AFSPC